CW5763 Weather Reports


Display with metric or nautical units.
time (UTC)temp
F
wind
direction
speed
MPH
gust
MPH
rain 1hr
in
rain 24hr
in
rain mn
in
humidity
%
barometer
mb
20260507215005 51 132 6.0 12.0 0.00 0.00 0.00 86 1015.6
20260507214005 51 130 7.0 12.0 0.00 0.00 0.00 85 1015.7
20260507212005 51 137 5.0 10.0 0.00 0.00 0.00 86 1015.7
20260507211005 51 137 6.0 12.0 0.00 0.00 0.00 86 1015.7
20260507210006 50 139 5.0 12.0 0.00 0.00 0.00 87 1015.7
20260507205005 50 131 7.0 12.0 0.00 0.00 0.00 88 1015.6
20260507204005 50 136 3.0 8.0 0.00 0.00 0.00 89 1015.5
20260507203005 49 133 3.0 7.0 0.00 0.00 0.00 88 1015.6
20260507202005 50 129 5.0 8.0 0.00 0.00 0.00 87 1015.6
20260507201005 50 139 2.0 5.0 0.00 0.00 0.00 86 1015.5
20260507200005 50 136 3.0 8.0 0.00 0.00 0.00 86 1015.4
20260507195005 51 142 3.0 8.0 0.00 0.00 0.00 86 1015.2
20260507194005 51 135 6.0 8.0 0.00 0.00 0.00 85 1015.2
20260507192005 52 131 5.0 9.0 0.00 0.00 0.00 85 1015.0
20260507191005 52 136 6.0 12.0 0.00 0.00 0.00 84 1014.9
20260507190005 52 130 6.0 9.0 0.00 0.00 0.00 83 1014.9
20260507185006 53 130 6.0 9.0 0.00 0.00 0.00 83 1014.9
20260507184005 53 131 8.0 12.0 0.00 0.00 0.00 82 1014.8
20260507183005 54 133 7.0 12.0 0.00 0.00 0.00 81 1014.7
20260507182005 54 123 6.0 10.0 0.00 0.00 0.00 80 1014.8
20260507181005 54 129 7.0 12.0 0.00 0.00 0.00 80 1014.7
20260507180005 55 131 7.0 12.0 0.00 0.00 0.00 79 1014.7
20260507175005 56 129 6.0 12.0 0.00 0.00 0.00 77 1014.7
20260507174005 56 131 9.0 14.0 0.00 0.00 0.00 76 1014.7
20260507173005 57 140 9.0 12.0 0.00 0.00 0.00 75 1014.7
20260507171005 59 138 7.0 12.0 0.00 0.00 0.00 72 1014.6
20260507163005 60 132 7.0 12.0 0.00 0.00 0.00 70 1014.9
20260507161005 61 129 9.0 14.0 0.00 0.00 0.00 68 1014.9
20260507160005 61 130 7.0 12.0 0.00 0.00 0.00 70 1015.0
20260507155006 61 129 7.0 12.0 0.00 0.00 0.00 65 1015.0
20260507152005 62 130 7.0 12.0 0.00 0.00 0.00 67 1015.1
20260507145004 61 129 10.0 15.0 0.00 0.00 0.00 61 1015.1
20260507144004 62 131 10.0 14.0 0.00 0.00 0.00 62 1015.2
20260507143004 62 143 7.0 15.0 0.00 0.00 0.00 62 1015.3
20260507142005 62 132 10.0 15.0 0.00 0.00 0.00 62 1015.3
20260507140005 62 133 6.0 15.0 0.00 0.00 0.00 62 1015.5
20260507135005 62 139 9.0 15.0 0.00 0.00 0.00 62 1015.5
20260507134004 62 143 4.0 15.0 0.00 0.00 0.00 58 1015.5
20260507133005 62 131 8.0 15.0 0.00 0.00 0.00 65 1015.5
20260507132006 62 131 10.0 15.0 0.00 0.00 0.00 64 1015.5
20260507131004 61 138 7.0 15.0 0.00 0.00 0.00 65 1015.5
20260507130005 60 144 6.0 12.0 0.00 0.00 0.00 64 1015.5
20260507124004 60 142 5.0 15.0 0.00 0.00 0.00 67 1015.6
20260507123006 60 131 10.0 15.0 0.00 0.00 0.00 68 1015.7
20260507120005 62 143 7.0 12.0 0.00 0.00 0.00 69 1015.8
20260507115004 62 140 7.0 16.0 0.00 0.00 0.00 69 1015.8
20260507113005 62 129 8.0 16.0 0.00 0.00 0.00 69 1015.6
20260507112004 62 131 9.0 17.0 0.00 0.00 0.00 68 1015.7
20260507111007 62 130 7.0 15.0 0.00 0.00 0.00 69 1015.7
20260507110005 61 130 8.0 12.0 0.00 0.00 0.00 69 1015.8
20260507105004 61 147 7.0 14.0 0.00 0.00 0.00 70 1015.9
20260507104004 60 126 8.0 14.0 0.00 0.00 0.00 73 1015.8
20260507103004 60 129 10.0 14.0 0.00 0.00 0.00 70 1015.8
20260507101004 60 118 8.0 17.0 0.00 0.00 0.00 74 1015.9
20260507100004 59 135 7.0 15.0 0.00 0.00 0.00 74 1015.8
20260507095004 59 142 9.0 18.0 0.00 0.00 0.00 76 1015.8
20260507094004 59 129 7.0 14.0 0.00 0.00 0.00 76 1015.8
20260507093006 58 135 10.0 15.0 0.00 0.00 0.00 76 1015.7
20260507092004 57 144 5.0 12.0 0.00 0.00 0.00 75 1015.9
20260507090007 58 137 6.0 12.0 0.00 0.00 0.00 80 1015.8
20260507085006 57 130 9.0 12.0 0.00 0.00 0.00 79 1015.8
20260507084006 57 130 7.0 15.0 0.00 0.00 0.00 79 1015.7
20260507082006 55 124 7.0 15.0 0.00 0.00 0.00 82 1015.6
20260507081006 54 145 6.0 14.0 0.00 0.00 0.00 83 1015.5
20260507080006 54 131 6.0 15.0 0.00 0.00 0.00 83 1015.5
20260507075006 54 132 10.0 15.0 0.00 0.00 0.00 83 1015.4
20260507074006 53 133 7.0 14.0 0.00 0.00 0.00 85 1015.4
20260507073006 53 132 8.0 15.0 0.00 0.00 0.00 87 1015.3
20260507072006 52 130 9.0 15.0 0.00 0.00 0.00 88 1015.2
20260507071006 52 129 9.0 15.0 0.00 0.00 0.00 92 1015.2
20260507070010 51 145 7.0 12.0 0.00 0.00 0.00 95 1015.1
20260507065007 50 142 7.0 12.0 0.00 0.00 0.00 96 1015.1
20260507063006 47 138 2.0 5.0 0.00 0.00 0.00 96 1015.2
20260507062006 46 136 2.0 3.0 0.00 0.00 0.00 96 1015.2
20260507061006 46 243 1.0 2.0 0.00 0.00 0.00 96 1015.2
20260507060006 45 267 1.0 2.0 0.00 0.00 0.00 96 1015.1
20260507055006 44 291 0.0 1.0 0.00 0.00 0.00 96 1015.0
20260507053006 42 291 0.0 0.0 0.00 0.00 0.00 95 1015.1
20260507052006 42 291 0.0 0.0 0.00 0.00 0.00 95 1015.0
20260507050006 41 291 0.0 0.0 0.00 0.00 0.00 93 1014.9
20260507045006 42 291 0.0 0.0 0.00 0.00 0.00 93 1014.8
20260507044007 42 291 0.0 0.0 0.00 0.00 0.00 93 1014.8
20260507043006 42 291 0.0 0.0 0.00 0.00 0.00 93 1014.7
20260507042006 42 291 0.0 0.0 0.00 0.00 0.00 93 1014.7
20260507041006 42 291 0.0 0.0 0.00 0.00 0.00 92 1014.6
20260507040006 42 291 0.0 0.0 0.00 0.00 0.00 92 1014.6
20260507035006 43 291 0.0 0.0 0.00 0.00 0.00 92 1014.6
20260507034006 43 291 0.0 0.0 0.00 0.00 0.00 93 1014.6
20260507031005 43 291 0.0 0.0 0.00 0.00 0.00 92 1014.5
20260507024005 43 291 0.0 0.0 0.00 0.00 0.00 90 1014.4
20260507023005 44 291 0.0 0.0 0.00 0.00 0.00 90 1014.3
20260507022006 44 291 0.0 0.0 0.00 0.00 0.00 91 1014.1
20260507021007 43 291 0.0 0.0 0.00 0.00 0.00 90 1013.9
20260507020005 44 291 0.0 0.0 0.00 0.00 0.00 88 1013.9
20260507015006 44 291 0.0 0.0 0.00 0.00 0.00 88 1013.9
20260507014004 44 291 0.0 0.0 0.00 0.00 0.00 88 1014.0
20260507013005 45 291 0.0 0.0 0.00 0.00 0.00 88 1013.9
20260507012005 45 291 0.0 0.0 0.00 0.00 0.00 87 1014.0
20260507010005 45 291 0.0 0.0 0.00 0.00 0.00 88 1014.1
20260507004005 45 291 0.0 0.0 0.00 0.00 0.00 85 1014.2
20260507003005 46 291 0.0 0.0 0.00 0.00 0.00 85 1014.2
20260507002006 46 291 0.0 0.0 0.00 0.00 0.00 85 1014.2
20260507001005 46 291 0.0 0.0 0.00 0.00 0.00 84 1014.3
20260507000006 47 291 0.0 0.0 0.00 0.00 0.00 84 1014.3
20260506235005 47 291 0.0 1.0 0.00 0.00 0.00 84 1014.2
20260506234005 47 291 0.0 1.0 0.00 0.00 0.00 83 1014.2
20260506233006 48 291 0.0 0.0 0.00 0.00 0.00 82 1014.2
20260506232005 48 291 0.0 0.0 0.00 0.00 0.00 82 1014.2
20260506231005 48 291 0.0 0.0 0.00 0.00 0.00 82 1014.2
20260506230005 49 291 0.0 0.0 0.00 0.00 0.00 82 1014.1
20260506224004 49 291 0.0 0.0 0.00 0.00 0.00 83 1014.1
20260506222005 50 291 0.0 0.0 0.00 0.00 0.00 83 1014.1
20260506221005 50 291 0.0 0.0 0.00 0.00 0.00 81 1014.0
20260506220005 50 291 0.0 1.0 0.00 0.00 0.00 81 1013.9